Regional Weather Roundup
Issued by NWS

Home | Current Version | Previous Version | Graphics & Text | Print | Product List | Glossary On
Versions: 1 2 3 4 5 6 7 8 9 10 11 12 13 14 15 16 17 18 19 20 21 22 23 24 25 26 27 28 29 30 31 32 33 34 35 36 37 38 39 40 41 42 43 44 45 46 47 48 49 50
000
ASUS43 KLMK 200110
RWRKY
KENTUCKY REGIONAL WEATHER ROUNDUP
NATIONAL WEATHER SERVICE LOUISVILLE KY
900 PM EDT TUE SEP 19 2017

NOTE "FAIR" INDICATES FEW OR NO CLOUDS BELOW 12,000 FEET
WITH NO SIGNIFICANT WEATHER AND/OR OBSTRUCTIONS TO VISIBILITY.

KYZ001>023-026-027-061>063-070>075-200200-
WESTERN AND SOUTH CENTRAL KENTUCKY

CITY           SKY/WX    TMP DP  RH WIND       PRES   REMARKS
PADUCAH        CLEAR     74  70  87 SE3       29.89R
HENDERSON      CLEAR     72  69  90 CALM      29.92R
OWENSBORO      NOT AVBL
HOPKINSVILLE   CLEAR     79  72  79 SE7       29.92R
BOWLING GREEN  CLEAR     74  71  91 CALM      29.94R
GLASGOW        PTCLDY    71  70  97 CALM      29.96R
$$

KYZ024-025-028>034-038-045-046-053-200200-
NORTH CENTRAL KENTUCKY

CITY           SKY/WX    TMP DP  RH WIND       PRES   REMARKS
LOUISVILLE/SDF PTCLDY    73  68  84 SE6       29.94R
LOUISVILLE/LOU CLEAR     70  69  97 CALM      29.95R
FORT KNOX      CLEAR     71  70  98 CALM      29.94R
$$

KYZ035>037-039>044-047>052-055>060-089>105-200200-
NORTHEAST KENTUCKY

CITY           SKY/WX    TMP DP  RH WIND       PRES   REMARKS
LEXINGTON      CLOUDY    72  67  84 NE3       29.97R
COVINGTON      CLEAR     68  68 100 CALM      29.95S
FRANKFORT      CLEAR     69  66  90 CALM      29.95R
$$

KYZ054-064>069-076>088-106>120-200200-
SOUTHEAST KENTUCKY

CITY           SKY/WX    TMP DP  RH WIND       PRES   REMARKS
JACKSON        PTCLDY    71  68  90 CALM      29.99R
LONDON         PTCLDY    71  68  90 S3        29.98R
SOMERSET       CLEAR     70  70 100 CALM      29.98R
MIDDLESBORO    PTCLDY    69  68  96 CALM      30.00R
MONTICELLO     CLEAR     67  66  97 W6        29.99R
$$




USA.gov is the U.S. government's official web portal to all federal, state and local government web resources and services.